When you browse on this site, cookies collect data to enhance your experience and personalize the content and advertising you see.
Visit our Privacy Policy to learn more. By continuing to use the site, you agree to this use of cookies and data.
  • In Portugal
  • List of Countries
  • For 7 days
  • Water Temperature
  • Satellite Maps
  • Weather Map
  • Weather Widgets
  • user-avatar
    Login

    Hourly Weather Emona

    Today, 26 May, Sunday

    Time Temperature Precipitation Wind Pressure Humidity
    00:00 +16°C° 0 mm 2 mps 760 mmHg 87%
    01:00 +16°C° 0 mm 2 mps 760 mmHg 87%
    02:00 +15°C° 0 mm 2 mps 760 mmHg 88%
    03:00 +15°C° 0 mm 2 mps 760 mmHg 88%
    04:00 +15°C° 0 mm 2 mps 760 mmHg 88%
    05:00 +14°C° 0 mm 3 mps 760 mmHg 88%
    06:00 +17°C° 0 mm 2 mps 761 mmHg 81%
    07:00 +19°C° 0 mm 2 mps 761 mmHg 75%
    08:00 +21°C° 0 mm 2 mps 761 mmHg 69%
    09:00 +24°C° 0 mm 2 mps 761 mmHg 63%
    10:00 +25°C° 0 mm 1 mps 761 mmHg 58%
    11:00 +25°C° 0 mm 0 mps 761 mmHg 52%
    12:00 +27°C° 0 mm 1 mps 761 mmHg 51%
    13:00 +28°C° 0 mm 2 mps 761 mmHg 50%
    14:00 +28°C° 0 mm 2 mps 761 mmHg 49%
    15:00 +28°C° 0 mm 3 mps 761 mmHg 51%
    16:00 +27°C° 0 mm 3 mps 761 mmHg 54%
    17:00 +27°C° 0 mm 3 mps 761 mmHg 56%
    18:00 +25°C° 0 mm 3 mps 761 mmHg 63%
    19:00 +22°C° 0 mm 3 mps 761 mmHg 70%
    20:00 +20°C° 0 mm 3 mps 761 mmHg 77%
    21:00 +19°C° 0 mm 2 mps 761 mmHg 80%
    22:00 +18°C° 0 mm 2 mps 762 mmHg 82%
    23:00 +19°C° 0 mm 1 mps 762 mmHg 85%

    Tomorrow, 27 May, Monday

    Time Temperature Precipitation Wind Pressure Humidity
    00:00 +19°C° 0 mm 1 mps 762 mmHg 86%
    01:00 +18°C° 0 mm 1 mps 762 mmHg 87%
    02:00 +18°C° 0 mm 1 mps 762 mmHg 88%
    03:00 +18°C° 0 mm 1 mps 762 mmHg 88%
    04:00 +18°C° 0 mm 1 mps 761 mmHg 89%
    05:00 +18°C° 0 mm 1 mps 761 mmHg 89%
    06:00 +20°C° 0 mm 1 mps 761 mmHg 82%
    07:00 +22°C° 0 mm 1 mps 762 mmHg 75%
    08:00 +24°C° 0 mm 1 mps 762 mmHg 68%
    09:00 +25°C° 0 mm 2 mps 762 mmHg 63%
    10:00 +26°C° 0 mm 3 mps 762 mmHg 57%
    11:00 +27°C° 0 mm 4 mps 762 mmHg 51%
    12:00 +27°C° 0 mm 4 mps 761 mmHg 51%
    13:00 +27°C° 0 mm 5 mps 761 mmHg 51%
    14:00 +27°C° 0 mm 5 mps 761 mmHg 52%
    15:00 +26°C° 0 mm 5 mps 761 mmHg 55%
    16:00 +25°C° 0 mm 5 mps 760 mmHg 58%
    17:00 +25°C° 0 mm 5 mps 760 mmHg 61%
    18:00 +22°C° 0 mm 4 mps 760 mmHg 70%
    19:00 +20°C° 0 mm 4 mps 760 mmHg 80%
    20:00 +18°C° 0 mm 3 mps 760 mmHg 89%
    21:00 +17°C° 0 mm 3 mps 760 mmHg 90%
    22:00 +17°C° 0 mm 2 mps 760 mmHg 92%
    23:00 +16°C° 0 mm 2 mps 760 mmHg 93%

    Day after tomorrow, 28 May, Tuesday

    Time Temperature Precipitation Wind Pressure Humidity
    00:00 +16°C° 0 mm 2 mps 760 mmHg 92%
    01:00 +16°C° 0 mm 2 mps 760 mmHg 91%
    02:00 +16°C° 0 mm 2 mps 759 mmHg 91%
    03:00 +16°C° 0 mm 2 mps 759 mmHg 91%
    04:00 +16°C° 0 mm 1 mps 759 mmHg 91%
    05:00 +16°C° 0 mm 1 mps 758 mmHg 92%
    06:00 +18°C° 0 mm 2 mps 758 mmHg 84%
    07:00 +20°C° 0 mm 2 mps 758 mmHg 77%
    08:00 +23°C° 0 mm 2 mps 758 mmHg 70%
    09:00 +25°C° 0 mm 2 mps 758 mmHg 64%
    10:00 +27°C° 0 mm 3 mps 758 mmHg 59%
    11:00 +29°C° 0 mm 3 mps 758 mmHg 54%
    12:00 +29°C° 0 mm 3 mps 757 mmHg 52%
    13:00 +30°C° 0 mm 4 mps 757 mmHg 51%
    14:00 +32°C° 0 mm 4 mps 756 mmHg 49%
    15:00 +30°C° 0 mm 4 mps 756 mmHg 52%
    16:00 +29°C° 0 mm 4 mps 756 mmHg 55%
    17:00 +29°C° 0 mm 4 mps 755 mmHg 58%
    18:00 +27°C° 0 mm 3 mps 755 mmHg 64%
    19:00 +24°C° 0 mm 3 mps 755 mmHg 70%
    20:00 +21°C° 0 mm 2 mps 755 mmHg 77%
    21:00 +21°C° 0 mm 2 mps 756 mmHg 71%
    22:00 +20°C° 0 mm 3 mps 756 mmHg 66%
    23:00 +20°C° 0 mm 3 mps 756 mmHg 61%

    29 May, Wednesday

    Time Temperature Precipitation Wind Pressure Humidity
    00:00 +19°C° 0 mm 3 mps 756 mmHg 64%
    01:00 +18°C° 0 mm 3 mps 756 mmHg 68%
    02:00 +18°C° 0 mm 3 mps 756 mmHg 71%
    03:00 +17°C° 0 mm 3 mps 756 mmHg 76%
    04:00 +17°C° 0 mm 3 mps 756 mmHg 81%
    05:00 +17°C° 0 mm 3 mps 756 mmHg 86%
    06:00 +19°C° 0 mm 3 mps 756 mmHg 79%
    07:00 +21°C° 0 mm 3 mps 756 mmHg 72%
    08:00 +23°C° 0 mm 4 mps 757 mmHg 65%
    09:00 +26°C° 0 mm 3 mps 757 mmHg 59%
    10:00 +28°C° 0 mm 3 mps 757 mmHg 54%
    11:00 +30°C° 0 mm 3 mps 757 mmHg 48%
    12:00 +30°C° 0 mm 3 mps 757 mmHg 46%
    13:00 +31°C° 0 mm 3 mps 757 mmHg 44%
    14:00 +33°C° 0 mm 3 mps 756 mmHg 42%
    15:00 +31°C° 0 mm 3 mps 756 mmHg 44%
    16:00 +31°C° 0 mm 3 mps 756 mmHg 47%
    17:00 +31°C° 0 mm 3 mps 756 mmHg 50%
    18:00 +28°C° 0 mm 3 mps 756 mmHg 56%
    19:00 +26°C° 0 mm 3 mps 757 mmHg 62%
    20:00 +24°C° 0 mm 3 mps 757 mmHg 68%
    21:00 +22°C° 0 mm 3 mps 757 mmHg 70%
    22:00 +21°C° 0 mm 3 mps 757 mmHg 71%
    23:00 +20°C° 0 mm 2 mps 758 mmHg 73%

    30 May, Thursday

    Time Temperature Precipitation Wind Pressure Humidity
    00:00 +19°C° 0 mm 2 mps 758 mmHg 75%
    01:00 +19°C° 0 mm 2 mps 758 mmHg 77%
    02:00 +19°C° 0 mm 2 mps 758 mmHg 78%
    03:00 +18°C° 0 mm 2 mps 758 mmHg 80%
    04:00 +18°C° 0 mm 2 mps 758 mmHg 83%
    05:00 +18°C° 0 mm 2 mps 758 mmHg 85%
    06:00 +20°C° 0 mm 2 mps 758 mmHg 79%
    07:00 +23°C° 0 mm 2 mps 758 mmHg 72%
    08:00 +25°C° 0 mm 2 mps 759 mmHg 66%
    09:00 +27°C° 0 mm 2 mps 759 mmHg 61%
    10:00 +28°C° 0 mm 2 mps 759 mmHg 56%
    11:00 +30°C° 0 mm 1 mps 759 mmHg 51%
    12:00 +30°C° 0.2 mm 2 mps 758 mmHg 50%
    13:00 +31°C° 0.2 mm 2 mps 758 mmHg 49%
    14:00 +31°C° 0.2 mm 2 mps 758 mmHg 48%
    15:00 +31°C° 0.2 mm 2 mps 758 mmHg 50%
    16:00 +30°C° 0.2 mm 2 mps 758 mmHg 53%
    17:00 +30°C° 0.2 mm 2 mps 758 mmHg 56%
    18:00 +28°C° 0 mm 2 mps 758 mmHg 62%
    19:00 +26°C° 0 mm 1 mps 758 mmHg 69%
    20:00 +24°C° 0 mm 1 mps 758 mmHg 75%
    21:00 +23°C° 0.1 mm 1 mps 759 mmHg 77%
    22:00 +23°C° 0.1 mm 1 mps 759 mmHg 79%
    23:00 +22°C° 0.1 mm 1 mps 759 mmHg 80%

    31 May, Friday

    Time Temperature Precipitation Wind Pressure Humidity
    00:00 +22°C° 0.1 mm 1 mps 759 mmHg 81%
    01:00 +20°C° 0.1 mm 2 mps 759 mmHg 82%
    02:00 +20°C° 0.1 mm 2 mps 759 mmHg 83%
    03:00 +19°C° 0.6 mm 3 mps 759 mmHg 86%
    04:00 +19°C° 0.6 mm 4 mps 759 mmHg 88%
    05:00 +18°C° 0.6 mm 4 mps 760 mmHg 90%
    06:00 +19°C° 0.6 mm 5 mps 760 mmHg 88%
    07:00 +20°C° 0.6 mm 5 mps 760 mmHg 86%
    08:00 +21°C° 0.6 mm 6 mps 760 mmHg 84%
    09:00 +22°C° 0.3 mm 6 mps 761 mmHg 80%
    10:00 +23°C° 0.3 mm 6 mps 761 mmHg 76%
    11:00 +24°C° 0.3 mm 6 mps 761 mmHg 72%
    12:00 +23°C° 0.7 mm 6 mps 761 mmHg 76%
    13:00 +22°C° 0.7 mm 6 mps 761 mmHg 81%
    14:00 +21°C° 0.7 mm 6 mps 761 mmHg 85%
    15:00 +20°C° 0.9 mm 6 mps 761 mmHg 87%
    16:00 +20°C° 0.9 mm 6 mps 760 mmHg 89%
    17:00 +19°C° 0.9 mm 6 mps 760 mmHg 91%
    18:00 +19°C° 2.1 mm 6 mps 761 mmHg 92%
    19:00 +17°C° 2.1 mm 6 mps 761 mmHg 93%
    20:00 +17°C° 2.1 mm 6 mps 761 mmHg 94%
    21:00 +16°C° 3.3 mm 5 mps 761 mmHg 94%
    22:00 +16°C° 3.3 mm 5 mps 761 mmHg 95%
    23:00 +17°C° 3.3 mm 4 mps 761 mmHg 96%
    Show more